Time,TemperatureF,DewpointF,PressureIn,WindDirection,WindDirectionDegrees,WindSpeedMPH,WindSpeedGustMPH,Humidity,HourlyPrecipIn,Conditions,Clouds,dailyrainin,SoftwareType,DateUTC
2014-02-01 00:08:00,72.1,71.6,30.03,South,180,2.9,7.6,95,0.00,,,0.00,Graphweather,2014-02-01 04:08:00,
2014-02-01 00:13:00,72.3,71.6,30.03,ENE,67,2.7,6.0,95,0.00,,,0.00,Graphweather,2014-02-01 04:13:00,
2014-02-01 00:18:00,72.0,71.6,30.00,ESE,112,3.1,6.5,95,0.00,,,0.00,Graphweather,2014-02-01 04:18:00,
2014-02-01 00:28:00,72.3,71.6,30.00,East,90,4.5,8.1,95,0.00,,,0.00,Graphweather,2014-02-01 04:28:00,
2014-02-01 00:33:00,72.3,71.6,30.00,East,90,3.6,8.1,95,0.00,,,0.00,Graphweather,2014-02-01 04:33:00,
2014-02-01 00:38:00,72.3,71.6,30.00,East,90,4.0,10.7,95,0.00,,,0.00,Graphweather,2014-02-01 04:38:00,
2014-02-01 00:48:00,72.3,71.6,30.00,East,90,2.7,9.4,95,0.00,,,0.00,Graphweather,2014-02-01 04:48:00,
2014-02-01 00:53:00,72.3,71.6,30.00,East,90,2.5,5.4,95,0.00,,,0.00,Graphweather,2014-02-01 04:53:00,
2014-02-01 00:58:00,72.5,71.6,30.00,ENE,67,2.7,11.0,95,0.00,,,0.00,Graphweather,2014-02-01 04:58:00,
2014-02-01 01:02:00,72.7,71.6,30.00,North,0,3.8,7.6,96,0.00,,,0.00,Graphweather,2014-02-01 05:02:00,
2014-02-01 01:08:00,72.9,71.6,30.00,NE,45,4.3,8.7,95,0.00,,,0.00,Graphweather,2014-02-01 05:08:00,
2014-02-01 01:13:00,72.9,71.6,30.00,NNE,22,4.9,8.9,96,0.00,,,0.00,Graphweather,2014-02-01 05:13:00,
2014-02-01 01:18:00,73.0,71.6,30.03,East,90,4.0,7.4,95,0.00,,,0.00,Graphweather,2014-02-01 05:18:00,
2014-02-01 01:28:00,72.9,71.6,30.03,SE,135,4.3,7.4,94,0.00,,,0.00,Graphweather,2014-02-01 05:28:00,
2014-02-01 01:33:00,73.0,71.6,30.06,East,90,4.7,7.6,94,0.00,,,0.00,Graphweather,2014-02-01 05:33:00,
2014-02-01 01:38:00,73.0,71.6,30.06,NW,315,4.3,7.4,95,0.00,,,0.00,Graphweather,2014-02-01 05:38:00,
2014-02-01 01:48:00,73.2,71.6,30.03,ESE,112,4.7,7.8,95,0.00,,,0.00,Graphweather,2014-02-01 05:48:00,
2014-02-01 01:53:00,73.0,71.6,30.03,ESE,112,4.5,8.7,95,0.00,,,0.00,Graphweather,2014-02-01 05:53:00,
2014-02-01 01:58:00,73.2,73.4,30.03,East,90,4.0,9.6,96,0.00,,,0.00,Graphweather,2014-02-01 05:58:00,
2014-02-01 02:08:00,73.0,71.6,30.03,East,90,3.1,10.3,95,0.00,,,0.00,Graphweather,2014-02-01 06:08:00,
2014-02-01 02:13:00,73.0,71.6,30.03,SE,135,3.1,6.5,95,0.00,,,0.00,Graphweather,2014-02-01 06:13:00,
2014-02-01 02:18:00,73.0,71.6,30.03,East,90,3.6,9.6,95,0.00,,,0.00,Graphweather,2014-02-01 06:18:00,
2014-02-01 02:22:00,73.2,71.6,30.03,ESE,112,4.3,7.2,95,0.00,,,0.00,Graphweather,2014-02-01 06:22:00,
2014-02-01 02:28:00,73.0,71.6,30.03,ENE,67,3.1,7.4,95,0.00,,,0.00,Graphweather,2014-02-01 06:28:00,
2014-02-01 02:33:00,73.0,71.6,30.00,SE,135,3.1,6.5,95,0.00,,,0.00,Graphweather,2014-02-01 06:33:00,
2014-02-01 02:38:00,73.0,71.6,30.00,ESE,112,3.1,5.8,96,0.00,,,0.00,Graphweather,2014-02-01 06:38:00,
2014-02-01 02:48:00,73.2,71.6,30.00,NNE,22,4.5,7.2,95,0.00,,,0.00,Graphweather,2014-02-01 06:48:00,
2014-02-01 02:53:00,73.4,71.6,30.00,SE,135,3.6,9.4,95,0.00,,,0.00,Graphweather,2014-02-01 06:53:00,
2014-02-01 02:58:00,73.4,71.6,30.00,SE,135,2.7,6.7,95,0.00,,,0.00,Graphweather,2014-02-01 06:58:00,
2014-02-01 03:07:00,73.2,71.6,29.97,South,180,2.7,4.9,95,0.00,,,0.00,Graphweather,2014-02-01 07:07:00,
2014-02-01 03:13:00,73.4,71.6,29.97,NE,45,3.8,7.4,95,0.00,,,0.00,Graphweather,2014-02-01 07:13:00,
2014-02-01 03:18:00,73.4,71.6,29.97,East,90,3.6,8.7,95,0.00,,,0.00,Graphweather,2014-02-01 07:18:00,
2014-02-01 03:27:00,73.4,71.6,29.97,SE,135,4.0,7.2,95,0.00,,,0.00,Graphweather,2014-02-01 07:27:00,
2014-02-01 03:33:00,73.4,71.6,30.00,ESE,112,3.1,6.5,95,0.00,,,0.00,Graphweather,2014-02-01 07:33:00,
2014-02-01 03:38:00,73.6,71.6,30.00,SE,135,3.1,6.3,95,0.00,,,0.00,Graphweather,2014-02-01 07:38:00,
2014-02-01 03:47:00,73.6,71.6,29.97,East,90,3.4,6.0,94,0.00,,,0.00,Graphweather,2014-02-01 07:47:00,
2014-02-01 03:53:00,73.6,71.6,29.97,NNW,337,4.7,6.3,94,0.00,,,0.00,Graphweather,2014-02-01 07:53:00,
2014-02-01 03:58:00,73.6,71.6,29.97,ESE,112,4.3,7.6,94,0.00,,,0.00,Graphweather,2014-02-01 07:58:00,
2014-02-01 04:07:00,73.6,71.6,29.97,SSE,157,3.4,6.5,94,0.00,,,0.00,Graphweather,2014-02-01 08:07:00,
2014-02-01 04:13:00,73.6,71.6,29.97,East,90,4.7,6.5,95,0.00,,,0.00,Graphweather,2014-02-01 08:13:00,
2014-02-01 04:18:00,73.6,71.6,29.97,South,180,3.4,5.4,95,0.00,,,0.00,Graphweather,2014-02-01 08:18:00,
2014-02-01 04:22:00,73.6,71.6,29.97,ESE,112,3.6,8.1,95,0.00,,,0.00,Graphweather,2014-02-01 08:22:00,
2014-02-01 04:27:00,73.6,71.6,29.97,ESE,112,3.4,5.4,94,0.00,,,0.00,Graphweather,2014-02-01 08:27:00,
2014-02-01 04:32:00,73.6,71.6,29.97,SE,135,4.0,7.8,95,0.00,,,0.00,Graphweather,2014-02-01 08:32:00,
2014-02-01 04:38:00,73.6,71.6,29.97,South,180,4.0,4.3,95,0.00,,,0.00,Graphweather,2014-02-01 08:38:00,
2014-02-01 04:47:00,73.8,73.4,30.00,ESE,112,3.4,6.3,95,0.00,,,0.00,Graphweather,2014-02-01 08:47:00,
2014-02-01 04:52:00,73.4,71.6,30.00,East,90,3.1,4.7,95,0.00,,,0.00,Graphweather,2014-02-01 08:52:00,
2014-02-01 04:58:00,73.2,73.4,30.00,SE,135,2.7,6.5,96,0.00,,,0.00,Graphweather,2014-02-01 08:58:00,
2014-02-01 05:03:00,73.2,73.4,30.00,East,90,3.1,6.0,96,0.00,,,0.00,Graphweather,2014-02-01 09:03:00,
2014-02-01 05:12:00,72.9,71.6,30.00,South,180,2.5,10.5,95,0.00,,,0.00,Graphweather,2014-02-01 09:12:00,
2014-02-01 05:18:00,72.3,71.6,30.00,East,90,3.6,5.6,96,0.00,,,0.00,Graphweather,2014-02-01 09:18:00,
2014-02-01 05:23:00,72.3,71.6,30.00,SSE,157,3.6,4.9,96,0.00,,,0.00,Graphweather,2014-02-01 09:23:00,
2014-02-01 05:32:00,72.0,71.6,30.00,ENE,67,2.2,6.3,97,0.00,,,0.00,Graphweather,2014-02-01 09:32:00,
2014-02-01 05:38:00,72.1,71.6,30.00,SSE,157,2.7,5.6,97,0.00,,,0.00,Graphweather,2014-02-01 09:38:00,
2014-02-01 05:43:00,72.0,71.6,30.00,NE,45,2.2,7.6,97,0.00,,,0.00,Graphweather,2014-02-01 09:43:00,
2014-02-01 05:52:00,71.6,71.6,30.00,SSE,157,2.7,8.1,97,0.00,,,0.00,Graphweather,2014-02-01 09:52:00,
2014-02-01 05:58:00,71.6,71.6,30.00,SSE,157,3.1,6.0,97,0.00,,,0.00,Graphweather,2014-02-01 09:58:00,
2014-02-01 06:03:00,71.8,71.6,30.00,ESE,112,4.7,4.7,97,0.00,,,0.00,Graphweather,2014-02-01 10:03:00,
2014-02-01 06:09:00,71.6,71.6,30.00,SE,135,2.5,5.8,96,0.00,,,0.00,Graphweather,2014-02-01 10:09:00,
2014-02-01 06:18:00,72.0,71.6,30.03,SE,135,3.4,7.4,96,0.00,,,0.00,Graphweather,2014-02-01 10:18:00,
2014-02-01 06:24:00,72.1,71.6,30.03,ESE,112,2.5,5.8,96,0.00,,,0.00,Graphweather,2014-02-01 10:24:00,
2014-02-01 06:29:00,72.0,71.6,30.03,ESE,112,3.6,5.6,96,0.00,,,0.00,Graphweather,2014-02-01 10:29:00,
2014-02-01 06:38:00,72.5,71.6,30.03,ESE,112,3.4,4.9,96,0.00,,,0.00,Graphweather,2014-02-01 10:38:00,
2014-02-01 06:44:00,72.3,71.6,30.03,SSW,202,6.0,9.8,95,0.00,,,0.00,Graphweather,2014-02-01 10:44:00,
2014-02-01 06:49:00,72.3,71.6,30.03,SE,135,4.0,7.6,95,0.00,,,0.00,Graphweather,2014-02-01 10:49:00,
2014-02-01 06:58:00,71.6,69.8,30.03,SE,135,3.4,4.3,94,0.00,,,0.00,Graphweather,2014-02-01 10:58:00,
2014-02-01 07:04:00,71.6,69.8,30.06,ESE,112,4.0,6.0,95,0.00,,,0.00,Graphweather,2014-02-01 11:04:00,
2014-02-01 07:09:00,72.3,71.6,30.06,ENE,67,2.9,5.4,96,0.00,,,0.00,Graphweather,2014-02-01 11:09:00,
2014-02-01 07:18:00,73.4,71.6,30.03,ESE,112,2.9,7.2,95,0.00,,,0.00,Graphweather,2014-02-01 11:18:00,
2014-02-01 07:24:00,73.8,73.4,30.03,ESE,112,2.9,6.5,95,0.00,,,0.00,Graphweather,2014-02-01 11:24:00,
2014-02-01 07:29:00,73.9,71.6,30.03,South,180,3.8,10.1,94,0.00,,,0.00,Graphweather,2014-02-01 11:29:00,
2014-02-01 07:38:00,74.1,71.6,30.03,SW,225,3.1,6.3,94,0.00,,,0.00,Graphweather,2014-02-01 11:38:00,
2014-02-01 07:44:00,73.9,71.6,30.03,ESE,112,3.4,7.6,94,0.00,,,0.00,Graphweather,2014-02-01 11:44:00,
2014-02-01 07:49:00,74.1,71.6,30.03,East,90,3.8,10.1,94,0.00,,,0.00,Graphweather,2014-02-01 11:49:00,
2014-02-01 07:58:00,74.8,73.4,30.03,East,90,4.3,7.4,94,0.00,,,0.00,Graphweather,2014-02-01 11:58:00,
2014-02-01 08:04:00,74.7,73.4,30.06,East,90,3.1,6.5,94,0.00,,,0.00,Graphweather,2014-02-01 12:04:00,
2014-02-01 08:09:00,74.3,73.4,30.06,SE,135,3.6,6.5,94,0.00,,,0.00,Graphweather,2014-02-01 12:09:00,
2014-02-01 08:19:00,75.0,73.4,30.06,SE,135,2.5,6.3,94,0.00,,,0.00,Graphweather,2014-02-01 12:19:00,
2014-02-01 08:24:00,77.0,75.2,30.06,ESE,112,3.1,4.9,93,0.00,,,0.00,Graphweather,2014-02-01 12:24:00,
2014-02-01 08:34:00,80.2,77.0,30.06,ESE,112,2.9,5.4,89,0.00,,,0.00,Graphweather,2014-02-01 12:34:00,
2014-02-01 08:39:00,80.6,77.0,30.06,East,90,4.0,5.8,85,0.00,,,0.00,Graphweather,2014-02-01 12:39:00,
2014-02-01 08:48:00,79.9,75.2,30.06,SSE,157,5.6,8.1,82,0.00,,,0.00,Graphweather,2014-02-01 12:48:00,
2014-02-01 08:54:00,79.0,73.4,30.06,East,90,3.6,7.8,84,0.00,,,0.00,Graphweather,2014-02-01 12:54:00,
2014-02-01 08:59:00,80.4,75.2,30.06,East,90,4.5,10.1,84,0.00,,,0.00,Graphweather,2014-02-01 12:59:00,
2014-02-01 09:07:00,82.6,75.2,30.06,North,0,2.9,6.5,78,0.00,,,0.00,Graphweather,2014-02-01 13:07:00,
2014-02-01 09:12:00,79.3,73.4,30.06,ESE,112,4.0,6.9,80,0.00,,,0.00,Graphweather,2014-02-01 13:12:00,
2014-02-01 09:18:00,79.5,73.4,30.09,SSW,202,5.6,6.5,79,0.00,,,0.00,Graphweather,2014-02-01 13:18:00,
2014-02-01 09:23:00,80.8,75.2,30.09,SSE,157,2.9,6.9,80,0.00,,,0.00,Graphweather,2014-02-01 13:23:00,
2014-02-01 09:32:00,81.9,75.2,30.09,ESE,112,5.6,8.7,79,0.00,,,0.00,Graphweather,2014-02-01 13:32:00,
2014-02-01 09:38:00,82.8,77.0,30.09,SSE,157,3.4,7.4,79,0.00,,,0.00,Graphweather,2014-02-01 13:38:00,
2014-02-01 09:47:00,83.7,75.2,30.09,SSE,157,4.7,9.4,75,0.00,,,0.00,Graphweather,2014-02-01 13:47:00,
2014-02-01 09:52:00,83.8,75.2,30.09,SE,135,4.3,8.5,73,0.00,,,0.00,Graphweather,2014-02-01 13:52:00,
2014-02-01 09:58:00,84.2,75.2,30.09,South,180,4.5,11.0,73,0.00,,,0.00,Graphweather,2014-02-01 13:58:00,
2014-02-01 10:07:00,84.9,73.4,30.09,East,90,3.8,7.2,70,0.00,,,0.00,Graphweather,2014-02-01 14:07:00,
2014-02-01 10:13:00,85.3,73.4,30.09,East,90,3.8,7.8,69,0.00,,,0.00,Graphweather,2014-02-01 14:13:00,
2014-02-01 10:18:00,86.2,75.2,30.09,East,90,4.3,9.2,70,0.00,,,0.00,Graphweather,2014-02-01 14:18:00,
2014-02-01 10:27:00,87.1,77.0,30.09,East,90,3.6,9.6,70,0.00,,,0.00,Graphweather,2014-02-01 14:27:00,
2014-02-01 10:33:00,86.5,75.2,30.09,ESE,112,3.8,8.5,67,0.00,,,0.00,Graphweather,2014-02-01 14:33:00,
2014-02-01 10:38:00,86.5,75.2,30.09,South,180,4.5,7.6,67,0.00,,,0.00,Graphweather,2014-02-01 14:38:00,
2014-02-01 10:47:00,85.5,75.2,30.09,East,90,3.6,7.8,72,0.00,,,0.00,Graphweather,2014-02-01 14:47:00,
2014-02-01 10:53:00,85.5,75.2,30.09,ENE,67,4.3,6.9,71,0.00,,,0.00,Graphweather,2014-02-01 14:53:00,
2014-02-01 10:58:00,86.5,75.2,30.09,NNE,22,6.0,7.8,70,0.00,,,0.00,Graphweather,2014-02-01 14:58:00,
2014-02-01 11:08:00,87.6,75.2,30.12,ESE,112,4.3,5.8,67,0.00,,,0.00,Graphweather,2014-02-01 15:08:00,
2014-02-01 11:13:00,88.2,77.0,30.12,ENE,67,3.1,5.8,67,0.00,,,0.00,Graphweather,2014-02-01 15:13:00,
2014-02-01 11:23:00,88.2,77.0,30.09,East,90,4.0,9.4,67,0.00,,,0.00,Graphweather,2014-02-01 15:23:00,
2014-02-01 11:28:00,86.7,75.2,30.09,East,90,4.3,7.4,68,0.00,,,0.00,Graphweather,2014-02-01 15:28:00,
2014-02-01 11:37:00,88.0,75.2,30.06,SSE,157,4.5,10.3,67,0.00,,,0.00,Graphweather,2014-02-01 15:37:00,
2014-02-01 11:43:00,84.4,75.2,30.06,ENE,67,3.4,10.1,71,0.00,,,0.00,Graphweather,2014-02-01 15:43:00,
2014-02-01 11:48:00,81.9,73.4,30.06,SSW,202,4.0,6.5,73,0.00,,,0.00,Graphweather,2014-02-01 15:48:00,
2014-02-01 11:57:00,85.8,75.2,30.06,East,90,2.9,6.3,73,0.00,,,0.00,Graphweather,2014-02-01 15:57:00,
2014-02-01 12:07:00,88.7,77.0,30.06,ESE,112,3.8,9.4,67,0.00,,,0.00,Graphweather,2014-02-01 16:07:00,
2014-02-01 12:13:00,88.9,77.0,30.06,East,90,2.7,7.6,65,0.00,,,0.00,Graphweather,2014-02-01 16:13:00,
2014-02-01 12:22:00,87.6,75.2,30.03,SSE,157,4.0,8.1,66,0.00,,,0.00,Graphweather,2014-02-01 16:22:00,
2014-02-01 12:28:00,88.2,75.2,30.03,East,90,2.5,5.4,66,0.00,,,0.00,Graphweather,2014-02-01 16:28:00,
2014-02-01 12:33:00,87.8,75.2,30.03,East,90,5.8,11.0,65,0.00,,,0.00,Graphweather,2014-02-01 16:33:00,
2014-02-01 12:42:00,87.6,77.0,30.03,ESE,112,3.6,8.7,68,0.00,,,0.00,Graphweather,2014-02-01 16:42:00,
2014-02-01 12:48:00,86.5,75.2,30.00,ENE,67,4.3,10.1,68,0.00,,,0.00,Graphweather,2014-02-01 16:48:00,
2014-02-01 12:57:00,85.5,73.4,30.00,ENE,67,3.8,8.5,69,0.00,,,0.00,Graphweather,2014-02-01 16:57:00,
2014-02-01 13:03:00,83.8,75.2,30.03,ESE,112,3.8,10.5,73,0.00,,,0.00,Graphweather,2014-02-01 17:03:00,
2014-02-01 13:08:00,83.1,73.4,30.03,SE,135,3.8,12.1,73,0.00,,,0.00,Graphweather,2014-02-01 17:08:00,
2014-02-01 13:17:00,83.1,73.4,30.03,SSE,157,4.0,5.6,70,0.00,,,0.00,Graphweather,2014-02-01 17:17:00,
2014-02-01 13:23:00,82.8,73.4,30.03,NNW,337,4.0,6.3,72,0.00,,,0.00,Graphweather,2014-02-01 17:23:00,
2014-02-01 13:28:00,84.4,75.2,30.03,East,90,4.3,7.4,72,0.00,,,0.00,Graphweather,2014-02-01 17:28:00,
2014-02-01 13:37:00,83.8,75.2,30.03,SSE,157,3.1,8.7,72,0.00,,,0.00,Graphweather,2014-02-01 17:37:00,
2014-02-01 13:43:00,85.3,75.2,30.03,ESE,112,3.8,6.5,72,0.00,,,0.00,Graphweather,2014-02-01 17:43:00,
2014-02-01 13:53:00,87.1,75.2,30.03,ESE,112,3.6,7.8,69,0.00,,,0.00,Graphweather,2014-02-01 17:53:00,
2014-02-01 13:58:00,87.4,75.2,30.03,SW,225,3.1,6.5,68,0.00,,,0.00,Graphweather,2014-02-01 17:58:00,
2014-02-01 14:07:00,86.9,75.2,30.00,East,90,3.8,10.5,68,0.00,,,0.00,Graphweather,2014-02-01 18:07:00,
2014-02-01 14:13:00,87.1,75.2,30.00,East,90,4.0,6.3,68,0.00,,,0.00,Graphweather,2014-02-01 18:13:00,
2014-02-01 14:18:00,86.9,75.2,30.00,East,90,3.1,6.3,69,0.00,,,0.00,Graphweather,2014-02-01 18:18:00,
2014-02-01 14:28:00,85.1,75.2,30.00,ESE,112,3.8,6.5,71,0.00,,,0.00,Graphweather,2014-02-01 18:28:00,
2014-02-01 14:33:00,84.2,75.2,30.00,ESE,112,4.0,7.6,73,0.00,,,0.00,Graphweather,2014-02-01 18:33:00,
2014-02-01 14:42:00,85.3,75.2,30.00,ESE,112,3.4,7.4,73,0.00,,,0.00,Graphweather,2014-02-01 18:42:00,
2014-02-01 14:48:00,85.8,75.2,30.00,NE,45,4.5,8.7,72,0.00,,,0.00,Graphweather,2014-02-01 18:48:00,
2014-02-01 14:53:00,85.3,75.2,30.00,NE,45,4.3,6.5,73,0.00,,,0.00,Graphweather,2014-02-01 18:53:00,
2014-02-01 15:02:00,83.1,75.2,30.00,SSE,157,3.6,4.3,74,0.00,,,0.00,Graphweather,2014-02-01 19:02:00,
2014-02-01 15:08:00,84.2,75.2,30.00,East,90,3.1,5.6,73,0.00,,,0.00,Graphweather,2014-02-01 19:08:00,
2014-02-01 15:13:00,82.0,75.2,30.00,ESE,112,4.0,7.4,77,0.00,,,0.00,Graphweather,2014-02-01 19:13:00,
2014-02-01 18:03:00,74.7,71.6,30.00,East,90,4.0,7.2,92,0.00,,,0.00,Graphweather,2014-02-01 22:03:00,
2014-02-01 18:08:00,74.7,73.4,30.00,ESE,112,2.9,6.5,94,0.00,,,0.00,Graphweather,2014-02-01 22:08:00,
2014-02-01 18:13:00,74.7,73.4,30.00,SW,225,3.1,5.8,94,0.00,,,0.00,Graphweather,2014-02-01 22:13:00,
2014-02-01 18:23:00,74.7,73.4,30.03,NNE,22,4.3,6.0,95,0.00,,,0.00,Graphweather,2014-02-01 22:23:00,
2014-02-01 18:28:00,74.7,73.4,30.03,NE,45,3.1,6.5,95,0.00,,,0.00,Graphweather,2014-02-01 22:28:00,
2014-02-01 18:34:00,74.7,73.4,30.00,East,90,3.1,6.3,94,0.00,,,0.00,Graphweather,2014-02-01 22:34:00,
2014-02-01 18:43:00,74.7,73.4,30.00,SE,135,3.8,6.5,94,0.00,,,0.00,Graphweather,2014-02-01 22:43:00,
2014-02-01 18:48:00,74.8,73.4,30.03,NNE,22,4.0,6.7,94,0.00,,,0.00,Graphweather,2014-02-01 22:48:00,
2014-02-01 18:58:00,75.0,73.4,30.03,East,90,4.3,10.5,94,0.00,,,0.00,Graphweather,2014-02-01 22:58:00,
2014-02-01 19:03:00,75.2,73.4,30.03,SE,135,2.9,6.3,94,0.00,,,0.00,Graphweather,2014-02-01 23:03:00,
2014-02-01 19:13:00,75.2,73.4,30.03,South,180,5.8,10.3,94,0.00,,,0.00,Graphweather,2014-02-01 23:13:00,
2014-02-01 19:53:00,74.5,73.4,30.06,NNE,22,4.0,6.5,95,0.00,,,0.00,Graphweather,2014-02-01 23:53:00,
2014-02-01 19:58:00,74.5,73.4,30.06,ESE,112,3.1,5.8,96,0.00,,,0.00,Graphweather,2014-02-01 23:58:00,
2014-02-01 20:08:00,74.3,73.4,30.06,East,90,2.9,8.1,94,0.00,,,0.00,Graphweather,2014-02-02 00:08:00,
2014-02-01 20:13:00,74.1,71.6,30.06,SSE,157,2.9,7.2,93,0.00,,,0.00,Graphweather,2014-02-02 00:13:00,
2014-02-01 20:53:00,74.5,73.4,30.06,North,0,3.4,8.5,96,0.00,,,0.00,Graphweather,2014-02-02 00:53:00,
2014-02-01 20:58:00,74.5,73.4,30.06,East,90,3.1,7.2,96,0.00,,,0.00,Graphweather,2014-02-02 00:58:00,
2014-02-01 21:08:00,74.1,71.6,30.09,ESE,112,2.5,7.2,94,0.00,,,0.00,Graphweather,2014-02-02 01:08:00,
2014-02-01 21:14:00,73.9,71.6,30.09,SE,135,2.7,5.8,93,0.00,,,0.00,Graphweather,2014-02-02 01:14:00,
2014-02-01 21:23:00,73.8,71.6,30.06,East,90,2.2,3.8,93,0.00,,,0.00,Graphweather,2014-02-02 01:23:00,
2014-02-01 21:29:00,73.6,71.6,30.06,SE,135,2.0,6.9,94,0.00,,,0.00,Graphweather,2014-02-02 01:29:00,
2014-02-01 21:38:00,73.4,71.6,30.09,East,90,3.6,7.4,95,0.00,,,0.00,Graphweather,2014-02-02 01:38:00,
2014-02-01 21:44:00,73.6,71.6,30.09,ENE,67,3.1,7.6,95,0.00,,,0.00,Graphweather,2014-02-02 01:44:00,
2014-02-01 21:53:00,72.0,71.6,30.09,ESE,112,2.0,3.8,96,0.00,,,0.00,Graphweather,2014-02-02 01:53:00,
2014-02-01 21:58:00,71.6,71.6,30.09,East,90,2.9,3.8,96,0.00,,,0.00,Graphweather,2014-02-02 01:58:00,
2014-02-01 22:04:00,71.6,71.6,30.09,East,90,1.3,4.3,96,0.00,,,0.00,Graphweather,2014-02-02 02:04:00,
2014-02-01 22:13:00,72.0,71.6,30.09,ESE,112,2.0,3.1,97,0.00,,,0.00,Graphweather,2014-02-02 02:13:00,
2014-02-01 22:19:00,72.1,71.6,30.09,ESE,112,0.9,4.7,97,0.00,,,0.00,Graphweather,2014-02-02 02:19:00,
2014-02-01 22:28:00,72.3,71.6,30.09,ESE,112,2.7,4.0,97,0.00,,,0.00,Graphweather,2014-02-02 02:28:00,
2014-02-01 22:33:00,72.5,71.6,30.09,East,90,2.5,2.9,97,0.00,,,0.00,Graphweather,2014-02-02 02:33:00,
2014-02-01 22:39:00,72.7,71.6,30.09,ESE,112,3.1,6.3,97,0.00,,,0.00,Graphweather,2014-02-02 02:39:00,
2014-02-01 22:48:00,73.0,71.6,30.09,SE,135,2.9,6.3,97,0.00,,,0.00,Graphweather,2014-02-02 02:48:00,
2014-02-01 22:53:00,73.0,71.6,30.09,East,90,1.3,4.7,97,0.00,,,0.00,Graphweather,2014-02-02 02:53:00,
2014-02-01 22:59:00,73.0,71.6,30.09,East,90,2.2,4.7,97,0.00,,,0.00,Graphweather,2014-02-02 02:59:00,
2014-02-01 23:08:00,73.2,73.4,30.09,ESE,112,2.7,4.9,96,0.00,,,0.00,Graphweather,2014-02-02 03:08:00,
2014-02-01 23:13:00,73.2,73.4,30.09,South,180,2.9,4.0,96,0.00,,,0.00,Graphweather,2014-02-02 03:13:00,
2014-02-01 23:19:00,73.2,73.4,30.06,SW,225,3.1,5.4,96,0.00,,,0.00,Graphweather,2014-02-02 03:19:00,
2014-02-01 23:28:00,73.6,73.4,30.06,East,90,2.7,5.8,96,0.00,,,0.00,Graphweather,2014-02-02 03:28:00,
2014-02-01 23:33:00,73.8,73.4,30.06,ESE,112,2.2,6.5,96,0.00,,,0.00,Graphweather,2014-02-02 03:33:00,
2014-02-01 23:39:00,73.6,71.6,30.06,SSE,157,2.5,4.9,95,0.00,,,0.00,Graphweather,2014-02-02 03:39:00,
2014-02-01 23:48:00,73.6,71.6,30.06,South,180,2.7,7.6,95,0.00,,,0.00,Graphweather,2014-02-02 03:48:00,
2014-02-01 23:53:00,73.8,73.4,30.06,ESE,112,3.1,6.5,95,0.00,,,0.00,Graphweather,2014-02-02 03:53:00,
2014-02-01 23:59:00,73.9,73.4,30.06,East,90,3.4,6.3,95,0.00,,,0.00,Graphweather,2014-02-02 03:59:00,